Location: 10036 Water Well
(34.0342°N, 106.9192°W)
Time: 01:28:35
(UTC+00:00)

Daily predictions for brighter satellites

Satellite Brightness Start Highest point End
(mag) Time Altitude Azimuth Time Altitude Azimuth Time Altitude Azimuth
Cosmos 2100 Rocket 4.1 00:28:24 10° S 00:34:39 89° W 00:40:52 10° N
SKYMED 2 4.4 00:31:04 10° NE 00:34:52 29° E 00:38:38 10° SSE
COSMO-SKYMED 1 3.8 00:32:47 10° NE 00:35:49 20° E 00:38:49 10° SE
Cosmos 1908 Rocket 3.8 00:32:06 10° SSE 00:36:18 49° E 00:40:33 10° NNE
SMAP 3.0 00:33:07 10° SSE 00:37:44 75° ENE 00:42:23 10° N
Cosmos 1867 4.2 00:35:56 10° SW 00:41:16 60° WNW 00:46:40 10° NNE
Cosmos 1300 Rocket 4.4 00:37:40 10° SSE 00:41:27 29° E 00:45:16 10° NNE
Delta 2 Rocket 3.2 00:40:52 10° WSW 00:44:53 85° SSE 00:48:35 11° ENE
Iridium 4 Rocket 3.8 00:40:20 10° S 00:46:00 83° W 00:51:18 10° N
VEP-3 4.2 00:37:56 10° WSW 00:49:08 41° S 00:54:25 10° ESE
Cosmos 1441 Rocket 4.4 00:47:30 10° NNE 00:49:44 17° ENE 00:51:57 10° ESE
Cosmos 2221 Rocket 3.8 00:45:44 10° N 00:50:05 47° E 00:54:22 10° SSE
Landsat 7 3.7 00:47:57 10° SSE 00:52:35 75° ENE 00:57:14 10° N
IRS-1C 4.1 00:47:19 10° SSE 00:52:38 86° ENE 00:57:58 10° NNW
Cosmos 1603 3.7 00:48:20 10° NNW 00:53:59 66° ENE 00:59:34 10° SSE
Cosmos 1459 Rocket 4.5 00:49:58 10° SSW 00:56:04 65° W 01:02:20 10° N
CZ-2D R/B 3.0 00:55:15 10° S 00:58:24 71° WSW 01:01:34 10° NNW
Cosmos 1943 4.3 00:54:32 10° NNW 00:59:56 49° WSW 01:05:20 10° S
Cosmos 1340 Rocket 4.3 00:57:58 10° SSW 01:01:33 37° WNW 01:05:09 10° N
Cosmos 2084 Rocket 4.4 00:58:39 10° S 01:02:09 27° ESE 01:04:21 17° ENE
Cosmos 1302 Rocket 3.9 00:57:00 10° NNW 01:02:14 83° ENE 01:07:28 10° SSE
AQUARIUS 4.0 00:58:32 10° SSE 01:02:55 80° ENE 01:07:20 10° N
Cosmos 1725 Rocket 4.1 01:00:00 10° S 01:06:13 83° W 01:12:31 10° N
PSLV R/B 4.1 01:09:50 10° SE 01:13:28 31° ENE 01:17:05 10° N
Helios 1A Rocket 2.3 01:14:09 10° NNE 01:17:32 85° ESE 01:20:54 10° SSW
Cosmos 2233 Rocket 3.9 01:11:23 10° S 01:17:37 82° E 01:23:55 10° N
NOSS 3-4 (A) 4.2 01:11:50 10° NNW 01:18:40 46° NE 01:26:30 10° SE
NOSS 3-4 (C) 4.2 01:11:56 10° NNW 01:18:44 46° NE 01:26:33 10° SE
Cosmos 1992 Rocket 3.9 01:15:32 10° N 01:20:42 63° ENE 01:25:49 10° SSE
Resurs 1-3 3.9 01:20:16 10° SE 01:24:17 40° ENE 01:28:19 10° N
Cosmos 1269 Rocket 4.0 01:19:18 10° S 01:24:27 64° ESE 01:29:40 10° NNE
ATLAS CENTAUR R/B 2.3 01:21:28 10° SW 01:24:40 35° WNW 01:27:54 10° N
Cosmos 2278 Rocket 3.5 01:22:00 10° SE 01:25:11 20° ESE 01:25:11 20° ESE
Cosmos 921 Rocket 4.3 01:32:07 10° SW 01:36:05 39° WNW 01:40:10 10° N
YAOGAN 1 2.4 01:32:22 10° SSE 01:36:33 63° ENE 01:40:46 10° N
Tsikada Rocket 4.0 01:31:13 10° N 01:37:39 84° E 01:44:01 10° S
CZ-4C R/B 4.2 01:35:08 10° W 01:37:48 16° NW 01:40:49 10° N
SL-12 R/B(2) 4.2 01:30:54 10° S 01:38:09 56° ESE 01:44:52 17° NE
OAO 2 Rocket 4.3 01:34:58 10° SW 01:39:29 32° SSE 01:40:43 28° SE
Orbus 21S 4.2 01:38:09 10° WSW 01:40:10 13° SSW 01:41:25 11° S
USA 281 3.9 01:39:32 29° ENE 01:40:13 30° ENE 01:45:44 10° N
MOS 1 Rocket 4.0 01:39:58 10° S 01:44:06 49° W 01:48:14 10° NNW
CZ-2D R/B 4.2 01:48:47 10° S 01:52:38 51° W 01:56:37 10° NNW
BREEZE-M DEB (TANK) 4.5 01:51:24 10° NW 01:53:30 17° N 01:54:04 16° N
Tiangong 0.2 01:55:22 10° NW 01:56:42 18° NNW 01:56:42 18° NNW
SPOT 1/Viking Rocket 4.2 01:55:16 10° S 02:00:16 54° W 02:05:19 10° NNW
Cosmos 1943 Rocket 2.6 01:57:38 10° S 02:02:00 42° SE 02:02:00 42° SE
Timation 2 Rocket 4.1 02:01:17 10° S 02:07:57 65° ESE 02:09:56 46° NE
Cosmos 1513 Rocket 4.4 02:05:07 10° S 02:11:21 89° ESE 02:17:44 10° N
Cosmos 1140 Rocket 4.3 02:07:57 10° SW 02:12:58 49° WNW 02:16:51 16° N
Aureole 3 Rocket 4.3 02:10:44 10° SSW 02:12:54 28° SSW 02:12:54 28° SSW
Meteor 2-12 Rocket 4.4 02:15:16 10° N 02:21:23 82° W 02:27:26 10° S
Cosmos 1975 Rocket 4.1 02:22:09 10° NNW 02:26:15 44° W 02:30:22 10° SSW
Cosmos 1833 Rocket 3.2 02:22:04 10° NNW 02:26:07 48° N 02:26:07 48° N
Cosmos 2278 Rocket 3.9 03:04:15 10° SW 03:07:06 28° WSW 03:07:06 28° WSW
USA 281 4.4 03:26:26 36° WNW 03:26:26 36° WNW 03:30:40 10° NW
ACS3 Solar Sail 4.1 10:44:21 10° N 10:44:27 10° N 10:44:27 10° N
CZ-2C R/B 4.5 10:56:52 10° NNE 10:58:22 20° NNE 10:58:22 20° NNE
USA 234 4.4 10:59:37 10° E 11:05:31 37° NE 11:08:18 26° N
SL-16 R/B 3.7 11:07:24 10° S 11:10:12 28° S 11:10:12 28° S
Cosmos 1809 Rocket 4.3 11:09:46 10° S 11:15:52 85° E 11:21:59 10° N
Cosmos 2219 Rocket 4.4 11:23:45 13° N 11:23:45 13° N 11:24:21 10° N
Intercosmos 25 Rocket 4.0 11:22:44 67° S 11:23:27 86° E 11:30:32 10° N
UNK 3.8 11:23:46 10° SSE 11:27:44 67° SE 11:27:44 67° SE
COSMOS 2428 2.5 11:29:57 72° WSW 11:30:19 75° WNW 11:36:02 10° NNE
NOSS 3-1 (C) 4.2 11:36:52 26° N 11:36:52 26° N 11:39:40 10° NNE
Cosmos 2100 Rocket 4.3 11:28:51 10° N 11:34:57 64° E 11:41:04 10° SSE
NOSS 0 Rocket 4.0 11:28:53 10° SSW 11:34:59 75° ESE 11:41:07 10° NNE
Cosmos 2322 3.8 11:38:06 52° NW 11:38:06 52° NW 11:43:06 10° NNE
Cosmos 1703 Rocket 4.1 11:37:05 10° S 11:41:18 56° E 11:45:34 10° NNE
BlueWalker 3 4.2 11:42:58 14° NNE 11:43:53 16° NNE 11:46:09 10° ENE
Cosmos 921 Rocket 2.9 11:43:43 56° NNW 11:44:40 89° WSW 11:49:05 10° SSE
Cosmos 1939 Rocket 4.4 11:41:41 10° N 11:43:13 23° N 11:43:13 23° N
Cosmos 1980 4.0 11:43:54 10° S 11:49:27 67° ESE 11:55:04 10° NNE
FengYun 1-2 T 4.2 11:44:57 10° NNE 11:50:33 84° ESE 11:56:09 10° SSW
Meteor 2-21 4.3 11:45:16 10° SSW 11:51:19 67° W 11:57:22 10° N
